Location: Lower Kingswood
(51.2667°N, 0.2167°W)
Time: 23:25:13
(UTC+00:00)

NOSS 2-3 (E) - Pass Details

Date: 26 September 2023
Orbit: 505 x 1696 km, 63.3° (Epoch: 05 December)

Event Time Altitude Azimuth Distance (km) Brightness Sun altitude
Exits shadow 02:56:03 39° 306° (NW) 1,360 5.1 -26.8°
Maximum altitude 02:58:27 77° 229° (SW) 1,040 4.4 -26.5°
Drops below altitude 10° 03:06:10 10° 145° (SE) 3,262 7.2 -25.5°
Sets 03:09:24 0° 144° (SE) 4,407 7.9 -25.1°
